| time (UTC) | temp C | wind direction | speed KPH | gust KPH | rain 1hr cm | rain 24hr cm | rain mn cm | humidity % | barometer mb |
| 20260506040905 | 7 | 0 | 0.0 | 0.0 | 0.00 | 0.00 | 0.00 | 10 | 1009.0 |
| 20260506035859 | 7 | 0 | 0.0 | 0.0 | 0.00 | 0.00 | 0.00 | 10 | 1009.0 |
| 20260506034854 | 7 | 0 | 0.0 | 0.0 | 0.00 | 0.00 | 0.00 | 10 | 1009.0 |
| 20260506033848 | 7 | 0 | 0.0 | 0.0 | 0.00 | 0.00 | 0.00 | 10 | 1009.0 |
| 20260506032842 | 7 | 0 | 0.0 | 0.0 | 0.00 | 0.00 | 0.00 | 10 | 1009.0 |
| 20260506031836 | 7 | 0 | 0.0 | 0.0 | 0.00 | 0.00 | 0.00 | 10 | 1010.0 |
| 20260506030831 | 7 | 0 | 0.0 | 0.0 | 0.00 | 0.00 | 0.00 | 10 | 1010.0 |
| 20260506025825 | 7 | 0 | 0.0 | 0.0 | 0.00 | 0.00 | 0.00 | 10 | 1010.0 |
| 20260506023813 | 8 | 0 | 0.0 | 0.0 | 0.00 | 0.00 | 0.00 | 99 | 1010.0 |
| 20260506021802 | 7 | 0 | 0.0 | 0.0 | 0.00 | 0.00 | 0.00 | 10 | 1010.0 |
| 20260506020756 | 7 | 0 | 0.0 | 0.0 | 0.00 | 0.00 | 0.00 | 10 | 1010.0 |
| 20260506015751 | 7 | 0 | 0.0 | 0.0 | 0.00 | 0.00 | 0.00 | 10 | 1010.0 |
| 20260506014745 | 8 | 0 | 0.0 | 0.0 | 0.00 | 0.00 | 0.00 | 10 | 1010.0 |
| 20260506013739 | 8 | 0 | 0.0 | 0.0 | 0.00 | 0.00 | 0.00 | 10 | 1010.0 |
| 20260506012733 | 8 | 0 | 0.0 | 0.0 | 0.00 | 0.00 | 0.00 | 10 | 1010.0 |
| 20260506011727 | 8 | 0 | 0.0 | 0.0 | 0.00 | 0.00 | 0.00 | 10 | 1010.0 |
| 20260506010722 | 8 | 0 | 0.0 | 0.0 | 0.00 | 0.00 | 0.00 | 99 | 1010.0 |
| 20260506005716 | 8 | 0 | 0.0 | 0.0 | 0.00 | 0.00 | 0.00 | 97 | 1010.0 |
| 20260506004711 | 8 | 0 | 0.0 | 0.0 | 0.00 | 0.00 | 0.00 | 10 | 1010.0 |
| 20260506002659 | 8 | 0 | 0.0 | 0.0 | 0.00 | 0.00 | 0.00 | 95 | 1010.0 |
| 20260506001654 | 8 | 0 | 0.0 | 0.0 | 0.00 | 0.00 | 0.00 | 96 | 1010.0 |
| 20260506000648 | 10 | 0 | 0.0 | 0.0 | 0.00 | 0.00 | 0.00 | 90 | 1010.0 |
| 20260505235642 | 9 | 0 | 0.0 | 0.0 | 0.00 | 0.00 | 0.00 | 94 | 1010.0 |
| 20260505234637 | 9 | 0 | 0.0 | 0.0 | 0.00 | 0.00 | 0.00 | 91 | 1010.0 |
| 20260505233631 | 9 | 0 | 0.0 | 0.0 | 0.00 | 0.00 | 0.00 | 92 | 1010.0 |
| 20260505232626 | 10 | 0 | 0.0 | 0.0 | 0.00 | 0.00 | 0.00 | 90 | 1010.0 |
| 20260505231620 | 10 | 0 | 0.0 | 0.0 | 0.00 | 0.00 | 0.00 | 87 | 1010.0 |
| 20260505230614 | 10 | 0 | 0.0 | 0.0 | 0.00 | 0.00 | 0.00 | 89 | 1010.0 |
| 20260505225609 | 10 | 0 | 0.0 | 0.0 | 0.00 | 0.00 | 0.00 | 88 | 1010.0 |
| 20260505224603 | 10 | 0 | 0.0 | 0.0 | 0.00 | 0.00 | 0.00 | 88 | 1010.0 |
| 20260505223558 | 10 | 0 | 0.0 | 0.0 | 0.00 | 0.00 | 0.00 | 87 | 1010.0 |
| 20260505222552 | 10 | 0 | 0.0 | 0.0 | 0.00 | 0.00 | 0.00 | 89 | 1010.0 |
| 20260505221546 | 10 | 0 | 0.0 | 0.0 | 0.00 | 0.00 | 0.00 | 84 | 1010.0 |
| 20260505220541 | 10 | 0 | 0.0 | 0.0 | 0.00 | 0.00 | 0.00 | 84 | 1010.0 |
| 20260505215535 | 10 | 0 | 0.0 | 0.0 | 0.00 | 0.00 | 0.00 | 83 | 1010.0 |
| 20260505214530 | 11 | 0 | 0.0 | 0.0 | 0.00 | 0.00 | 0.00 | 80 | 1010.0 |
| 20260505213524 | 11 | 0 | 0.0 | 0.0 | 0.00 | 0.00 | 0.00 | 85 | 1010.0 |
| 20260505212518 | 11 | 0 | 0.0 | 0.0 | 0.00 | 0.00 | 0.00 | 79 | 1010.0 |
| 20260505211513 | 11 | 0 | 0.0 | 0.0 | 0.00 | 0.00 | 0.00 | 81 | 1010.0 |
| 20260505205502 | 12 | 0 | 0.0 | 0.0 | 0.00 | 0.00 | 0.00 | 79 | 1009.0 |
| 20260505204456 | 12 | 0 | 0.0 | 0.0 | 0.00 | 0.00 | 0.00 | 78 | 1009.0 |
| 20260505203450 | 11 | 0 | 0.0 | 0.0 | 0.00 | 0.00 | 0.00 | 79 | 1009.0 |
| 20260505202445 | 12 | 0 | 0.0 | 0.0 | 0.00 | 0.00 | 0.00 | 72 | 1009.0 |
| 20260505200434 | 13 | 0 | 0.0 | 0.0 | 0.00 | 0.00 | 0.00 | 73 | 1009.0 |
| 20260505195428 | 13 | 0 | 0.0 | 0.0 | 0.00 | 0.00 | 0.00 | 70 | 1008.0 |
| 20260505194422 | 13 | 0 | 0.0 | 0.0 | 0.00 | 0.00 | 0.00 | 72 | 1008.0 |
| 20260505192411 | 15 | 0 | 0.0 | 0.0 | 0.00 | 0.00 | 0.00 | 61 | 1008.0 |
| 20260505191406 | 14 | 0 | 0.0 | 0.0 | 0.00 | 0.00 | 0.00 | 65 | 1008.0 |
| 20260505185355 | 15 | 0 | 0.0 | 0.0 | 0.00 | 0.00 | 0.00 | 58 | 1008.0 |
| 20260505184349 | 16 | 0 | 0.0 | 0.0 | 0.00 | 0.00 | 0.00 | 60 | 1007.0 |
| 20260505183343 | 15 | 0 | 0.0 | 0.0 | 0.00 | 0.00 | 0.00 | 64 | 1007.0 |
| 20260505182338 | 16 | 0 | 0.0 | 0.0 | 0.00 | 0.00 | 0.00 | 63 | 1007.0 |
| 20260505181332 | 16 | 0 | 0.0 | 0.0 | 0.00 | 0.00 | 0.00 | 64 | 1007.0 |
| 20260505180327 | 16 | 0 | 0.0 | 0.0 | 0.00 | 0.00 | 0.00 | 66 | 1007.0 |
| 20260505174315 | 17 | 0 | 0.0 | 0.0 | 0.00 | 0.00 | 0.00 | 61 | 1007.0 |
| 20260505173310 | 17 | 0 | 0.0 | 0.0 | 0.00 | 0.00 | 0.00 | 63 | 1007.0 |
| 20260505172306 | 19 | 0 | 0.0 | 0.0 | 0.00 | 0.00 | 0.00 | 45 | 1007.0 |
| 20260505171259 | 19 | 0 | 0.0 | 0.0 | 0.00 | 0.00 | 0.00 | 46 | 1007.0 |
| 20260505170253 | 20 | 0 | 0.0 | 0.0 | 0.00 | 0.00 | 0.00 | 43 | 1007.0 |
| 20260505165247 | 20 | 0 | 0.0 | 0.0 | 0.00 | 0.00 | 0.00 | 44 | 1007.0 |
| 20260505164242 | 20 | 0 | 0.0 | 0.0 | 0.00 | 0.00 | 0.00 | 45 | 1007.0 |
| 20260505163236 | 20 | 0 | 0.0 | 0.0 | 0.00 | 0.00 | 0.00 | 42 | 1007.0 |
| 20260505162231 | 20 | 0 | 0.0 | 0.0 | 0.00 | 0.00 | 0.00 | 40 | 1007.0 |
| 20260505161225 | 20 | 0 | 0.0 | 0.0 | 0.00 | 0.00 | 0.00 | 41 | 1007.0 |
| 20260505153203 | 19 | 0 | 0.0 | 0.0 | 0.00 | 0.00 | 0.00 | 46 | 1008.0 |
| 20260505152157 | 18 | 0 | 0.0 | 0.0 | 0.00 | 0.00 | 0.00 | 47 | 1008.0 |
| 20260505151151 | 19 | 0 | 0.0 | 0.0 | 0.00 | 0.00 | 0.00 | 45 | 1008.0 |
| 20260505150146 | 19 | 0 | 0.0 | 0.0 | 0.00 | 0.00 | 0.00 | 47 | 1008.0 |
| 20260505140112 | 20 | 0 | 0.0 | 0.0 | 0.00 | 0.00 | 0.00 | 33 | 1007.0 |
| 20260505125033 | 21 | 0 | 0.0 | 0.0 | 0.00 | 0.00 | 0.00 | 33 | 1007.0 |
| 20260505124027 | 21 | 0 | 0.0 | 0.0 | 0.00 | 0.00 | 0.00 | 33 | 1007.0 |
| 20260505123022 | 21 | 0 | 0.0 | 0.0 | 0.00 | 0.00 | 0.00 | 32 | 1007.0 |
| 20260505121011 | 22 | 0 | 0.0 | 0.0 | 0.00 | 0.00 | 0.00 | 31 | 1007.0 |
| 20260505115000 | 22 | 0 | 0.0 | 0.0 | 0.00 | 0.00 | 0.00 | 31 | 1007.0 |
| 20260505113954 | 22 | 0 | 0.0 | 0.0 | 0.00 | 0.00 | 0.00 | 29 | 1007.0 |
| 20260505112948 | 23 | 0 | 0.0 | 0.0 | 0.00 | 0.00 | 0.00 | 28 | 1007.0 |
| 20260505111943 | 26 | 0 | 0.0 | 0.0 | 0.00 | 0.00 | 0.00 | 24 | 1007.0 |
| 20260505110937 | 28 | 0 | 0.0 | 0.0 | 0.00 | 0.00 | 0.00 | 23 | 1007.0 |
| 20260505101909 | 25 | 0 | 0.0 | 0.0 | 0.00 | 0.00 | 0.00 | 27 | 1008.0 |
| 20260505095858 | 25 | 0 | 0.0 | 0.0 | 0.00 | 0.00 | 0.00 | 26 | 1008.0 |
| 20260505094852 | 24 | 0 | 0.0 | 0.0 | 0.00 | 0.00 | 0.00 | 27 | 1008.0 |
| 20260505093847 | 23 | 0 | 0.0 | 0.0 | 0.00 | 0.00 | 0.00 | 29 | 1008.0 |
| 20260505091836 | 23 | 0 | 0.0 | 0.0 | 0.00 | 0.00 | 0.00 | 31 | 1008.0 |
| 20260505090830 | 23 | 0 | 0.0 | 0.0 | 0.00 | 0.00 | 0.00 | 32 | 1009.0 |
| 20260505084819 | 20 | 0 | 0.0 | 0.0 | 0.00 | 0.00 | 0.00 | 36 | 1009.0 |
| 20260505083813 | 21 | 0 | 0.0 | 0.0 | 0.00 | 0.00 | 0.00 | 39 | 1009.0 |
| 20260505082808 | 18 | 0 | 0.0 | 0.0 | 0.00 | 0.00 | 0.00 | 42 | 1009.0 |
| 20260505081802 | 17 | 0 | 0.0 | 0.0 | 0.00 | 0.00 | 0.00 | 46 | 1009.0 |
| 20260505080756 | 17 | 0 | 0.0 | 0.0 | 0.00 | 0.00 | 0.00 | 44 | 1009.0 |
| 20260505075751 | 18 | 0 | 0.0 | 0.0 | 0.00 | 0.00 | 0.00 | 43 | 1009.0 |
| 20260505074745 | 18 | 0 | 0.0 | 0.0 | 0.00 | 0.00 | 0.00 | 44 | 1010.0 |
| 20260505073740 | 18 | 0 | 0.0 | 0.0 | 0.00 | 0.00 | 0.00 | 45 | 1010.0 |
| 20260505071728 | 15 | 0 | 0.0 | 0.0 | 0.00 | 0.00 | 0.00 | 52 | 1010.0 |
| 20260505070723 | 15 | 0 | 0.0 | 0.0 | 0.00 | 0.00 | 0.00 | 54 | 1010.0 |
| 20260505065717 | 15 | 0 | 0.0 | 0.0 | 0.00 | 0.00 | 0.00 | 57 | 1010.0 |
| 20260505063706 | 15 | 0 | 0.0 | 0.0 | 0.00 | 0.00 | 0.00 | 57 | 1010.0 |
| 20260505062700 | 13 | 0 | 0.0 | 0.0 | 0.00 | 0.00 | 0.00 | 64 | 1010.0 |
| 20260505061655 | 12 | 0 | 0.0 | 0.0 | 0.00 | 0.00 | 0.00 | 66 | 1010.0 |
| 20260505060649 | 12 | 0 | 0.0 | 0.0 | 0.00 | 0.00 | 0.00 | 70 | 1010.0 |
| 20260505055644 | 12 | 0 | 0.0 | 0.0 | 0.00 | 0.00 | 0.00 | 75 | 1010.0 |
| 20260505054638 | 11 | 0 | 0.0 | 0.0 | 0.00 | 0.00 | 0.00 | 73 | 1010.0 |
| 20260505053633 | 11 | 0 | 0.0 | 0.0 | 0.00 | 0.00 | 0.00 | 73 | 1010.0 |
| 20260505052627 | 10 | 0 | 0.0 | 0.0 | 0.00 | 0.00 | 0.00 | 78 | 1011.0 |
| 20260505051621 | 10 | 0 | 0.0 | 0.0 | 0.00 | 0.00 | 0.00 | 76 | 1011.0 |
| 20260505050616 | 10 | 0 | 0.0 | 0.0 | 0.00 | 0.00 | 0.00 | 77 | 1011.0 |
| 20260505041548 | 8 | 0 | 0.0 | 0.0 | 0.00 | 0.00 | 0.00 | 86 | 1011.0 |